Regional Weather Roundup
Issued by NWS

Home | Current Version | Previous Version | Graphics & Text | Print | Product List | Glossary On
Versions: 1 2 3 4 5 6 7 8 9 10 11 12 13 14 15 16 17 18 19 20 21 22 23 24 25 26 27 28 29 30 31 32 33 34 35 36 37 38 39 40 41 42 43 44 45 46 47 48 49 50
000
ASUS43 KLMK 220702
RWRKY
KENTUCKY REGIONAL WEATHER ROUNDUP
NATIONAL WEATHER SERVICE LOUISVILLE KY
200 AM EST MON JAN 22 2018

NOTE "FAIR" INDICATES FEW OR NO CLOUDS BELOW 12,000 FEET
WITH NO SIGNIFICANT WEATHER AND/OR OBSTRUCTIONS TO VISIBILITY.

KYZ001>023-026-027-061>063-070>075-220800-
WESTERN AND SOUTH CENTRAL KENTUCKY

CITY           SKY/WX    TMP DP  RH WIND       PRES   REMARKS
PADUCAH        FAIR      59  45  59 S14G24    29.84F
HENDERSON      FAIR      55  45  68 S13       29.89F
OWENSBORO      CLOUDY    53  44  71 S12       29.92F
HOPKINSVILLE   FAIR      58  43  57 SE10      29.92F
BOWLING GREEN  FAIR      59  45  59 S14G22    29.98F
GLASGOW        NOT AVBL
$$

KYZ024-025-028>034-038-045-046-053-220800-
NORTH CENTRAL KENTUCKY

CITY           SKY/WX    TMP DP  RH WIND       PRES   REMARKS
LOUISVILLE/SDF CLOUDY    60  46  59 S14       29.95F
LOUISVILLE/LOU CLOUDY    57  48  72 S8        29.96F
FORT KNOX      CLOUDY    56  46  67 S10       29.94F
$$

KYZ035>037-039>044-047>052-055>060-089>105-220800-
NORTHEAST KENTUCKY

CITY           SKY/WX    TMP DP  RH WIND       PRES   REMARKS
LEXINGTON      CLOUDY    56  43  61 S12       30.00F
COVINGTON      CLOUDY    50  47  89 S9        29.96F
FRANKFORT      MOCLDY    52  42  69 CALM      29.98F
$$

KYZ054-064>069-076>088-106>120-220800-
SOUTHEAST KENTUCKY

CITY           SKY/WX    TMP DP  RH WIND       PRES   REMARKS
JACKSON        CLOUDY    55  42  61 VRB5      30.05F
LONDON         CLOUDY    55  42  61 S3        30.05F
SOMERSET       NOT AVBL
MIDDLESBORO    CLOUDY    43  41  93 CALM      30.11F
MONTICELLO     CLOUDY    60  44  55 VRB6      30.05
$$





USA.gov is the U.S. government's official web portal to all federal, state and local government web resources and services.